Kremmling, CO

7:46 AM MST on December 04, 2016 (GMT -0700)
Kremmling

Weather History for K20V - February, 2014

Change the Weather History Date:

Wednesday, February 19, 2014

  Actual Average Record
Temperature  
Mean Temperature 28 °F -  
Max Temperature 42 °F - 50 °F (2015)
Min Temperature 14 °F - -14 °F (2013)
Degree Days  
Heating Degree Days 37    
Month to date heating degree days  
Cooling Degree Days 0    
Month to date cooling degree days  
Moisture  
Dew Point 15 °F    
Average Humidity 62    
Maximum Humidity 93    
Minimum Humidity 29    
Precipitation  
Precipitation 0.00 in - 0.04 in (2006)
Sea Level Pressure  
Sea Level Pressure 29.79 in    
Wind  
Wind Speed 4 mph (WNW)    
Max Wind Speed 24 mph    
Max Gust Speed 34 mph    
Visibility 10 miles    
Events Snow    
T = Trace of Precipitation, MM = Missing Value Source: NWS Daily Summary

Daily Weather History Graph

Daily Weather History Graph

Search for Another Location

Airport or City:

Trip Planner

Search our weather history database for the weather conditions in past years. The results will help you decide how hot, cold, wet, or windy it might be!

Date:

Astronomy

Feb. 19, 2014 Rise Set
Actual Time 6:53 AM MST 5:46 PM MST
Civil Twilight 6:25 AM MST 6:13 PM MST
Nautical Twilight 5:53 AM MST 6:45 PM MST
Astronomical Twilight 5:22 AM MST 7:16 PM MST
Moon 10:42 PM MST (2/19) 9:00 AM MST (2/19)
Length of Visible Light 11h 48m
Length of Day
10h 53m
Waning Gibbous, 79% of the Moon is Illuminated
Feb 19
Waning Gibbous
Feb 22
Last Quarter
Mar 1
New
Mar 8
First Quarter
Mar 16
Full

Hourly Weather History & Observations

Time (MST) Temp. Windchill Dew Point Humidity Pressure Visibility Wind Dir Wind Speed Gust Speed Precip Events Conditions
12:16 AM 24.8 °F - 15.8 °F 69% 30.02 in 10.0 mi Calm Calm - N/A   Scattered Clouds
12:36 AM 23.0 °F - 15.8 °F 74% 30.02 in 10.0 mi Calm Calm - N/A   Mostly Cloudy
12:56 AM 23.0 °F 18.4 °F 15.8 °F 74% 30.01 in 10.0 mi North 3.5 mph - N/A   Scattered Clouds
1:16 AM 23.0 °F - 15.8 °F 74% 30.00 in 10.0 mi Calm Calm - N/A   Scattered Clouds
1:36 AM 21.2 °F - 15.8 °F 80% 29.99 in 10.0 mi Calm Calm - N/A   Mostly Cloudy
1:56 AM 21.2 °F - 14.0 °F 74% 29.98 in 10.0 mi Calm Calm - N/A   Scattered Clouds
2:16 AM 21.2 °F 16.4 °F 14.0 °F 74% 29.97 in 10.0 mi NNW 3.5 mph - N/A   Clear
2:36 AM 21.2 °F - 14.0 °F 74% 29.96 in 10.0 mi Calm Calm - N/A   Clear
2:56 AM 19.4 °F - 14.0 °F 80% 29.96 in 10.0 mi Calm Calm - N/A   Clear
3:16 AM 19.4 °F - 12.2 °F 74% 29.94 in 10.0 mi Calm Calm - N/A   Clear
3:36 AM 19.4 °F - 12.2 °F 74% 29.94 in 10.0 mi Calm Calm - N/A   Scattered Clouds
3:56 AM 17.6 °F - 12.2 °F 79% 29.93 in 10.0 mi Calm Calm - N/A   Clear
4:16 AM 17.6 °F - 12.2 °F 79% 29.92 in 10.0 mi Calm Calm - N/A   Scattered Clouds
4:36 AM 17.6 °F - 12.2 °F 79% 29.91 in 10.0 mi Calm Calm - N/A   Scattered Clouds
4:55 AM 17.6 °F - 12.2 °F 79% 29.91 in 10.0 mi Calm Calm - N/A   Scattered Clouds
5:15 AM 17.6 °F - 12.2 °F 79% 29.91 in 10.0 mi Calm Calm - N/A   Scattered Clouds
5:36 AM 17.6 °F - 12.2 °F 79% 29.90 in 10.0 mi Calm Calm - N/A   Mostly Cloudy
5:56 AM 14.0 °F - 10.4 °F 86% 29.89 in 10.0 mi Calm Calm - N/A   Mostly Cloudy
6:16 AM 15.8 °F - 12.2 °F 86% 29.89 in 10.0 mi Calm Calm - N/A   Mostly Cloudy
6:36 AM 14.0 °F - 10.4 °F 86% 29.89 in 10.0 mi Calm Calm - N/A   Mostly Cloudy
6:56 AM 14.0 °F - 12.2 °F 93% 29.88 in 10.0 mi Calm Calm - N/A   Scattered Clouds
7:16 AM 14.0 °F - 10.4 °F 86% 29.87 in 10.0 mi Calm Calm - N/A   Mostly Cloudy
7:36 AM 15.8 °F - 10.4 °F 79% 29.87 in 10.0 mi Calm Calm - N/A   Overcast
7:56 AM 17.6 °F - 12.2 °F 79% 29.87 in 10.0 mi Calm Calm - N/A   Overcast
8:16 AM 17.6 °F - 10.4 °F 73% 29.86 in 10.0 mi Calm Calm - N/A   Mostly Cloudy
8:36 AM 19.4 °F - 12.2 °F 74% 29.84 in 10.0 mi Calm Calm - N/A   Scattered Clouds
8:56 AM 19.4 °F - 12.2 °F 74% 29.84 in 10.0 mi Calm Calm - N/A   Mostly Cloudy
9:16 AM 19.4 °F - 12.2 °F 74% 29.83 in 10.0 mi Calm Calm - N/A   Scattered Clouds
9:36 AM 21.2 °F - 12.2 °F 68% 29.82 in 10.0 mi Calm Calm - N/A   Clear
9:56 AM 23.0 °F - 12.2 °F 63% 29.81 in 10.0 mi Calm Calm - N/A   Scattered Clouds
10:15 AM 30.2 °F - 14.0 °F 51% 29.80 in 10.0 mi Calm Calm - N/A   Scattered Clouds
10:36 AM 30.2 °F 21.9 °F 15.8 °F 55% 29.79 in 10.0 mi East 9.2 mph - N/A   Overcast
10:56 AM 32.0 °F 27.5 °F 17.6 °F 55% 29.78 in 10.0 mi East 4.6 mph - N/A   Mostly Cloudy
11:15 AM 35.6 °F 29.9 °F 17.6 °F 48% 29.77 in 10.0 mi East 6.9 mph - N/A   Scattered Clouds
11:36 AM 35.6 °F 31.7 °F 19.4 °F 52% 29.75 in 10.0 mi ESE 4.6 mph - N/A   Mostly Cloudy
11:56 AM 39.2 °F 35.0 °F 14.0 °F 36% 29.72 in 10.0 mi North 5.8 mph - N/A   Scattered Clouds
12:16 PM 42.8 °F 34.3 °F 12.2 °F 29% 29.70 in 10.0 mi WSW 19.6 mph 27.6 mph N/A   Mostly Cloudy
12:35 PM 42.8 °F 34.8 °F 12.2 °F 29% 29.69 in 10.0 mi WSW 17.3 mph 25.3 mph N/A   Overcast
12:56 PM 42.8 °F 36.2 °F 12.2 °F 29% 29.67 in 10.0 mi SW 12.7 mph 21.9 mph N/A   Overcast
1:15 PM 42.8 °F 34.5 °F 14.0 °F 31% 29.66 in 10.0 mi WSW 18.4 mph 29.9 mph N/A   Overcast
1:35 PM 42.8 °F 36.6 °F 14.0 °F 31% 29.65 in 10.0 mi WSW 11.5 mph 26.5 mph N/A   Mostly Cloudy
1:56 PM 42.8 °F 33.3 °F 15.8 °F 34% 29.64 in 10.0 mi SW 24.2 mph 34.5 mph N/A   Scattered Clouds
2:16 PM 42.8 °F 34.8 °F 14.0 °F 31% 29.62 in 10.0 mi SW 17.3 mph 29.9 mph N/A   Clear
2:35 PM 42.8 °F 35.4 °F 17.6 °F 36% 29.60 in 10.0 mi SSW 15.0 mph 27.6 mph N/A   Clear
2:55 PM 41.0 °F 32.8 °F 17.6 °F 39% 29.59 in 10.0 mi SW 16.1 mph 25.3 mph N/A   Clear
3:15 PM 41.0 °F 34.3 °F 19.4 °F 42% 29.59 in 10.0 mi West 11.5 mph - N/A   Scattered Clouds
3:36 PM 39.2 °F 31.6 °F 21.2 °F 49% 29.59 in 10.0 mi West 12.7 mph - N/A   Overcast
3:56 PM 37.4 °F 28.9 °F 21.2 °F 52% 29.58 in 10.0 mi West 13.8 mph 24.2 mph N/A   Overcast
4:16 PM 37.4 °F 29.8 °F 23.0 °F 56% 29.59 in 10.0 mi NW 11.5 mph 20.7 mph N/A   Overcast
4:36 PM 37.4 °F 28.2 °F 23.0 °F 56% 29.60 in 10.0 mi NNW 16.1 mph 21.9 mph N/A   Overcast
4:56 PM 33.8 °F 25.8 °F 28.4 °F 81% 29.61 in 10.0 mi North 10.4 mph 15.0 mph N/A   Overcast
5:16 PM 33.8 °F 23.9 °F 28.4 °F 81% 29.61 in 7.0 mi North 15.0 mph - N/A Snow Light Snow
5:36 PM 32.0 °F 20.8 °F 23.0 °F 69% 29.63 in 5.0 mi NW 17.3 mph 23.0 mph N/A Snow Light Snow
5:56 PM 32.0 °F 23.6 °F 19.4 °F 60% 29.66 in 10.0 mi NW 10.4 mph 20.7 mph N/A   Overcast
6:15 PM 32.0 °F 21.6 °F 19.4 °F 60% 29.68 in 10.0 mi NW 15.0 mph 20.7 mph N/A   Overcast
6:35 PM 30.2 °F 23.4 °F 21.2 °F 69% 29.69 in 10.0 mi NNW 6.9 mph - N/A   Overcast
6:55 PM 30.2 °F 21.3 °F 21.2 °F 69% 29.70 in 10.0 mi NNW 10.4 mph 19.6 mph N/A   Overcast
7:16 PM 30.2 °F 25.4 °F 21.2 °F 69% 29.72 in 10.0 mi NNW 4.6 mph - N/A   Overcast
7:36 PM 30.2 °F - 21.2 °F 69% 29.74 in 10.0 mi Calm Calm - N/A   Overcast
7:56 PM 28.4 °F 23.3 °F 19.4 °F 69% 29.76 in 10.0 mi North 4.6 mph - N/A   Overcast
8:16 PM 28.4 °F 19.1 °F 17.6 °F 64% 29.78 in 10.0 mi WNW 10.4 mph 18.4 mph N/A   Overcast
8:36 PM 26.6 °F 17.5 °F 12.2 °F 55% 29.78 in 10.0 mi NW 9.2 mph - N/A   Overcast
8:56 PM 26.6 °F 16.8 °F 10.4 °F 51% 29.79 in 10.0 mi NW 10.4 mph - N/A   Overcast
9:16 PM 26.6 °F 16.2 °F 8.6 °F 47% 29.80 in 10.0 mi NW 11.5 mph 17.3 mph N/A   Overcast
9:36 PM 26.6 °F 19.1 °F 6.8 °F 43% 29.81 in 10.0 mi WNW 6.9 mph - N/A   Overcast
9:56 PM 24.8 °F 20.5 °F 10.4 °F 54% 29.80 in 10.0 mi WNW 3.5 mph - N/A   Mostly Cloudy
10:16 PM 23.0 °F 14.7 °F 10.4 °F 59% 29.79 in 10.0 mi West 6.9 mph - N/A   Scattered Clouds
10:36 PM 23.0 °F 13.1 °F 10.4 °F 59% 29.79 in 10.0 mi NW 9.2 mph - N/A   Clear
10:55 PM 23.0 °F 12.4 °F 8.6 °F 54% 29.81 in 10.0 mi NW 10.4 mph 16.1 mph N/A   Scattered Clouds
11:16 PM 21.2 °F 11.7 °F 5.0 °F 50% 29.81 in 10.0 mi NW 8.1 mph - N/A   Overcast
11:35 PM 21.2 °F 12.6 °F 5.0 °F 50% 29.81 in 10.0 mi WNW 6.9 mph 19.6 mph N/A   Overcast
11:55 PM 21.2 °F 13.6 °F 5.0 °F 50% 29.83 in 10.0 mi NW 5.8 mph - N/A   Mostly Cloudy